Location: Palmerston North
(40.3500°S, 175.6170°E)
Time: 13:09:15
(UTC+13:00)

Daily predictions for brighter satellites

Satellite Brightness Start Highest point End
(mag) Time Altitude Azimuth Time Altitude Azimuth Time Altitude Azimuth
Cosmos 1980 Rocket 2.5 21:04:56 10° NNW 21:10:39 78° WSW 21:16:25 10° SSE
Meteor 1-27 4.4 21:05:23 10° N 21:11:12 87° W 21:17:10 10° S
Lacrosse 5 2.0 21:11:23 10° SW 21:16:34 76° SE 21:21:41 10° NE
Cosmos 1805 Rocket 4.1 21:13:08 10° SSW 21:17:31 63° W 21:21:49 10° N
Cosmos 2228 Rocket 4.3 21:14:39 10° NE 21:18:12 24° E 21:21:48 10° SE
MOS 1 4.3 21:13:25 10° SSE 21:19:14 81° ENE 21:24:58 10° NNW
DELTA 2 R/B(2) 3.9 21:17:29 10° WNW 21:20:16 39° NNE 21:21:51 10° E
Cosmos 2322 Rocket 2.8 21:15:39 10° N 21:20:45 36° ENE 21:25:56 10° SE
Cosmos 1741 Rocket 4.2 21:17:13 10° NNW 21:22:33 85° WSW 21:27:59 10° SSE
ADEOS Rocket 3.7 21:19:27 10° NE 21:24:20 31° ESE 21:29:09 10° S
CZ-2D R/B 3.7 21:24:17 10° S 21:28:15 69° WSW 21:32:09 10° NNW
USA 186 1.8 21:26:05 10° SSE 21:28:51 40° E 21:31:26 10° N
Cosmos 1515 Rocket 4.1 21:26:17 10° NNE 21:30:29 41° E 21:34:46 10° SSE
Cosmos 1939 Rocket 3.0 21:29:35 10° SSE 21:33:51 86° ENE 21:38:02 10° NNW
Envisat 4.3 21:29:08 10° S 21:34:03 46° WSW 21:38:54 10° NW
NOAA 11 4.3 21:31:48 10° SSE 21:37:20 61° E 21:42:47 10° N
USA 32 4.4 21:33:17 10° N 21:38:32 72° W 21:43:51 10° S
ARGOS 4.4 21:34:38 10° SE 21:38:43 21° E 21:42:01 13° NE
Meteor 2-10 Rocket 4.2 21:35:21 10° NNW 21:40:23 59° WSW 21:45:41 10° S
Cosmos 2227 4.2 21:34:38 10° SSW 21:40:24 86° ESE 21:46:03 10° NNE
Resurs 01 Rocket 2.6 21:38:38 10° SE 21:42:28 27° E 21:45:44 13° NNE
Cosmos 292 Rocket 4.4 21:38:29 10° SSW 21:43:12 56° WNW 21:47:53 10° N
Cosmos 1633 4.5 21:41:27 10° SE 21:43:41 15° ESE 21:45:03 13° E
Cosmos 2263 Rocket 2.5 21:38:58 10° SSW 21:44:32 54° ESE 21:49:12 15° NE
Aureole 3 Rocket 2.9 21:44:41 10° S 21:48:13 84° W 21:52:45 10° N
CZ-2C R/B 2.8 21:48:35 12° NNE 21:53:32 60° ESE 21:58:52 10° S
BREEZE-M DEB (TANK) 4.5 21:37:27 10° WNW 21:54:30 83° SSW 21:58:34 10° SE
Cosmos 1151 Rocket 3.0 21:51:06 10° N 21:55:24 86° W 21:59:48 10° S
Resurs 1-3 3.9 21:51:23 10° SSE 21:55:40 45° E 21:59:42 11° N
Cosmos 2208 Rocket 4.2 21:59:08 10° SSW 22:04:23 73° WNW 22:09:01 13° N
SPOT 3 Rocket 4.4 22:00:06 10° S 22:05:13 54° WSW 22:10:16 10° NNW
Cosmos 2315 Rocket 4.1 21:59:14 10° S 22:05:39 84° W 22:11:56 10° N
CZ-4C R/B 4.2 22:05:06 10° S 22:08:43 16° SSE 22:12:01 10° ESE
H-2A R/B 3.7 22:08:43 10° NNW 22:12:17 25° NE 22:23:34 10° E
Cosmos 1356 4.3 22:12:25 29° ENE 22:13:02 31° E 22:16:12 10° SSE
Cosmos 540 Rocket 3.9 22:11:23 10° S 22:16:28 49° ESE 22:19:09 26° NE
ATLAS 3B R/B 3.9 22:18:33 20° ENE 22:19:17 21° ENE 22:24:18 10° ESE
USA 238 DEB 4.2 22:16:34 10° N 22:23:20 40° ENE 22:30:02 10° SE
USA 238 4.2 22:16:41 10° N 22:23:25 40° ENE 22:30:07 10° SE
BREEZE-M DEB (TANK) 2.6 22:24:10 10° W 22:28:12 49° SSW 22:29:45 17° SE
Cosmos 1862 3.7 22:24:35 10° SSW 22:28:38 62° W 22:31:06 22° N
Cosmos 2237 4.4 22:25:19 18° N 22:29:24 48° ENE 22:34:54 10° SE
Cosmos 1763 Rocket 4.1 22:25:42 10° SSW 22:30:49 52° WNW 22:34:28 18° N
Atlas Centaur 2 3.5 22:24:37 10° WNW 22:32:28 42° N 22:36:40 26° NE
Cosmos 1869 Rocket 3.8 22:30:52 10° S 22:35:14 53° E 22:36:30 39° NE
ERBS 3.6 22:32:52 10° SSW 22:36:06 32° SE 22:37:00 28° ESE
Nimbus 7 Rocket 4.4 22:38:53 29° NNE 22:42:02 76° ESE 22:48:04 10° S
Cosmos 1486 Rocket 4.0 22:37:15 10° NNW 22:42:29 88° WSW 22:47:48 10° SSE
H-2A R/B 1.8 22:37:39 10° SSE 22:42:45 78° ENE 22:45:39 25° N
ERS-1 Rocket 4.1 22:39:50 10° SE 22:44:02 26° E 22:44:02 26° E
SL-08 R/B 4.4 22:39:25 16° N 22:44:24 90° ESE 22:50:40 10° S
SL-16 R/B 3.5 22:40:03 10° NW 22:45:24 42° WSW 22:50:50 10° S
Mayak 0.0 22:46:27 27° E 22:46:53 27° ESE 22:50:29 10° SSE
Cosmos 2360 Rocket 2.2 22:45:01 10° NNW 22:50:44 88° WSW 22:56:30 10° SSE
Lacrosse 5 rocket 4.0 22:53:15 10° S 22:53:57 10° SSE 22:54:40 10° SSE
CZ-4B DEB 4.3 22:52:23 10° SSE 22:55:55 80° ENE 22:55:55 80° ENE
Cosmos 1707 Rocket 3.5 22:55:32 54° NNE 22:56:22 69° E 23:00:46 10° SSE
Cosmos 1733 Rocket 4.2 22:53:51 10° SSE 22:57:41 28° ESE 22:57:44 28° ESE
Meteor 1-26 Rocket 4.2 22:56:00 33° N 22:58:41 73° E 23:04:27 10° SSE
Lacrosse 5 3.9 22:55:41 10° WSW 22:58:58 17° WNW 23:01:12 13° NNW
NOSS 2-1 (E) 4.5 22:51:33 10° SW 22:59:19 87° SE 23:01:31 42° NE
Cosmos 1242 Rocket 4.1 22:56:04 10° SSW 22:59:26 32° W 23:00:53 23° NW
Cosmos 1933 4.1 22:58:17 25° NW 23:00:24 53° W 23:04:30 10° S
Cosmos 1844 Rocket 3.1 22:55:29 10° SSW 23:00:59 48° ESE 23:02:38 37° ENE
Helios 1B rocket 2.3 23:00:45 62° NNE 23:01:25 87° E 23:05:38 10° SSW
Cosmos 841 Rocket 4.4 22:56:36 10° SSW 23:01:39 43° WNW 23:04:13 25° NNW
COSMOS 2428 3.1 23:03:03 41° ENE 23:03:33 42° ENE 23:08:58 10° SE
Cosmos 2322 Rocket 3.9 22:59:43 10° WNW 23:04:48 33° WSW 23:09:56 10° S
NOSS 3-2 (C) 4.4 23:03:16 34° NNE 23:05:48 42° ENE 23:12:58 10° SE
Cosmos 1745 Rocket 4.1 23:05:15 23° NNW 23:09:28 76° W 23:15:54 10° S
SPOT 1/Viking Rocket 4.2 23:04:42 10° SSE 23:09:30 37° E 23:09:30 37° E
Cosmos 968 Rocket 3.5 23:08:48 53° NNE 23:09:43 62° ENE 23:14:56 10° SSE
ADEOS Rocket 4.1 23:05:50 15° NNW 23:09:49 33° W 23:14:48 10° SSW
Cosmos 1386 Rocket 4.4 23:09:16 30° N 23:12:33 84° W 23:18:44 10° S
Cosmos 1709 Rocket 4.0 23:15:10 45° NNE 23:16:59 64° E 23:23:13 10° SSE
Terra 3.4 23:14:10 10° SE 23:16:50 21° ESE 23:16:50 21° ESE
Cosmos 1633 4.1 23:15:26 10° SSW 23:18:37 29° W 23:19:15 27° WNW
Resurs 01 Rocket 3.6 23:15:05 10° S 23:18:51 27° WSW 23:22:36 10° NW
ARGOS 4.0 23:14:00 10° S 23:19:11 48° WSW 23:23:31 14° NW
Spot 2 Rocket 4.3 23:16:49 10° S 23:21:47 49° WSW 23:25:12 19° NW
Cosmos 2322 3.8 23:18:11 22° NNW 23:21:56 75° WSW 23:27:41 10° SSE
Cosmos 1862 Rocket 4.1 23:23:39 46° ESE 23:23:39 46° ESE 23:27:23 10° SSE
MetOp-B 4.2 23:18:28 10° S 23:23:54 78° WSW 23:25:59 39° NNW
Meteor 1-25 Rocket 4.3 23:18:23 10° S 23:24:18 83° W 23:25:57 50° N
Cosmos 1606 3.1 23:25:39 58° W 23:25:52 59° W 23:29:48 10° S
Cosmos 2263 Rocket 4.1 23:23:54 10° SW 23:28:00 21° W 23:30:54 14° NW
CENTAUR R/B 3.6 23:28:52 33° ENE 23:28:52 33° ENE 23:34:45 10° SE
Meteor 2-6 Rocket 4.3 23:33:41 54° E 23:33:45 54° E 23:39:05 10° SSE
Cosmos 2333 Rocket 2.2 23:35:00 61° NE 23:35:17 62° ENE 23:41:01 10° SSE
Cosmos 2219 Rocket 2.1 23:36:23 65° NE 23:36:50 68° ENE 23:42:32 10° SSE
Cosmos 2278 Rocket 3.5 23:32:24 10° S 23:37:19 29° SE 23:38:32 26° ESE
IRAS Rocket 4.4 23:32:10 10° S 23:37:47 71° WSW 23:39:47 40° NW
Cosmos 2181 Rocket 4.0 23:32:32 10° S 23:38:45 65° E 23:39:48 56° NE
IGS 5A 4.3 23:38:13 10° SSE 23:41:15 42° SE 23:41:15 42° SE
SeaSat 1 2.3 23:38:49 10° SSE 23:43:50 85° ENE 23:43:59 82° NNE
Meteor 2-21 4.4 23:43:30 60° NE 23:44:10 65° E 23:50:13 10° SSE
Gbstr 26 Del rocket 4.4 23:43:07 10° SW 23:46:28 26° SSE 23:46:54 25° SE
Cosmos 2237 Rocket 3.2 23:51:01 33° ESE 23:51:01 33° ESE 23:54:56 10° SE
Cosmos 1340 Rocket 3.6 23:50:56 49° S 23:50:56 49° S 23:53:59 10° S
Cosmos 1818 4.2 23:47:57 22° NW 23:51:20 54° SW 23:56:38 10° SSE
